Location: Runa
(38.1429°N, 80.8510°W)
Time: 13:18:45
(UTC+00:00)

ISS - Pass Details

Date: 21 April 2026
Orbit: 414 x 424 km, 51.6° (Epoch: 12 May)

Event Time Altitude Azimuth Distance (km) Brightness Sun altitude
Exits shadow 08:54:20 70° 307° (NW) 448 -3.8 -19.6°
Maximum altitude 08:54:26 70° 322° (NW) 446 -3.8 -19.6°
Drops below altitude 10° 08:57:47 10° 47° (NE) 1,502 0.3 -19.0°
Sets 08:59:55 0° 49° (NE) 2,371 1.7 -18.7°
